Tracking 19562 objects as of 21-Mar-2019
HD Live streaming from Space Station
objects crossing your sky now

CLEMENTINE

Track CLEMENTINE now!
10-day predictions
CLEMENTINE is classified as:


NORAD ID: 25978
Int'l Code: 1999-064B
Perigee: 579.6 km
Apogee: 590.2 km
Inclination: 98.2 °
Period: 96.2 minutes
Semi major axis: 6955 km
RCS: 0.785 m2 (medium)
Launch date: December 3, 1999
Source: France (FR)
Launch site: FRENCH GUIANA (FRGUI)

Intelligence gathering, part of an experimental eavesdropping program.
aabbcc
Your satellite tracking list
Your tracking list is empty




NASA's NSSDC Master Catalog

Two Line Element Set (TLE):
1 25978U 99064B   19080.69886568  .00000184  00000-0  21829-4 0  9992
2 25978  98.1536 336.1565 0007574 331.9612  28.1199 14.96483449 47106
Source of the keplerian elements: AFSPC